SCP
0 0 1 1 1 0 0 0 0 0 0 0 0 0 0 0 0 0 0 0 0 0 0 0 0 0 0 0 0 0 0 0 0 0 0 0 0 0 0 0 0 0 0 0 0 0 0 0 0
0 0 1 1 1 0 0 0 0 0 0 0 0 0 0 0 0 0 0 0 0 0 0 0 0 0 0 0 0 0 0 0 0 0 0 0 0 0 0 0 0 0 0 0 0 0 0 0 0
0 1 1 1 0 0 0 0 0 0 0 0 0 0 0 0 0 0 0 0 0 0 0 0 0 0 0 0 0 0 0 0 0 0 0 0 0 0 0 0 0 0 0 0 0 0 0 0 0
1 1 1 0 0 0 0 0 0 0 0 0 0 0 0 0 0 0 0 0 0 0 0 0 0 0 0 0 0 0 0 0 0 0 0 0 0 0 0 0 0 0 0 0 0 0 0 0 0
1 1 1 0 0 0 0 0 0 0 0 0 0 0 0 0 0 0 0 0 0 0 0 0 0 0 0 0 0 0 0 0 0 0 0 0 0 0 0 0 0 0 0 0 0 0 0 0 0
1 1 0 0 0 0 0 0 0 0 0 0 0 0 0 0 0 0 0 0 0 0 0 0 0 0 0 0 0 0 0 0 0 0 0 0 0 0 0 0 0 0 0 0 0 0 0 0 0
1 1 0 0 0 0 0 0 0 0 0 0 0 0 0 0 0 0 0 0 0 0 0 0 0 0 0 0 0 0 0 0 0 0 0 0 0 0 0 0 0 0 0 0 0 0 0 0 0
1 0 0 0 0 0 0 0 0 0 0 0 0 0 0 0 0 0 0 0 0 0 0 0 0 0 0 0 0 0 0 0 0 0 0 0 0 0 0 0 0 0 0 0 0 0 0 0 0
0 0 0 0 0 0 0 0 0 0 0 0 0 0 0 0 0 0 0 0 0 0 0 0 0 0 0 0 0 0 0 0 0 0 0 0 0 0 0 0 0 0 0 0 0 0 0 0 0
0 0 0 0 0 0 0 0 0 0 0 0 0 0 0 0 0 0 0 0 0 0 0 0 0 0 0 0 0 0 0 0 0 0 0 0 0 0 0 0 0 0 0 0 0 0 0 0 0
0 0 0 0 0 0 0 0 0 0 0 0 0 0 0 0 0 0 0 0 0 0 0 0 0 0 0 0 0 0 0 0 0 0 0 0 0 0 0 0 0 0 0 0 0 0 0 0 0
0 0 0 0 0 0 0 0 0 0 0 0 0 0 0 0 0 0 0 0 0 0 0 0 0 0 0 0 0 0 0 0 0 0 0 0 0 0 0 0 0 0 0 0 0 0 0 0 0
0 0 0 0 0 0 0 0 0 0 0 0 0 0 0 0 0 0 0 0 0 0 0 0 0 0 0 0 0 0 0 0 0 0 0 0 0 0 0 0 0 0 0 0 0 0 0 0 0
0 0 0 0 0 0 0 0 0 0 0 0 0 0 0 0 0 0 0 0 0 0 0 0 0 0 0 0 0 0 0 0 0 0 0 0 0 0 0 0 0 0 0 0 0 0 0 0 0
0 0 0 0 0 0 0 0 0 0 0 0 0 0 0 0 0 0 0 0 0 0 0 0 0 0 0 0 0 0 0 0 0 0 0 0 0 0 0 0 0 0 0 0 0 0 0 0 0
0 0 0 0 0 0 0 0 0 0 0 0 0 0 0 0 0 0 0 0 0 0 0 0 0 0 0 0 0 0 0 0 0 0 0 0 0 0 0 0 0 0 0 1 1 0 0 0 0
0 0 0 0 0 0 0 0 0 0 0 0 0 0 0 0 0 0 0 0 0 0 1 0 0 0 0 0 0 0 0 0 0 0 0 0 0 0 0 0 0 0 0 1 1 1 0 0 0
0 0 0 0 0 0 0 0 0 0 0 0 0 0 0 0 0 0 0 0 0 1 1 1 1 0 0 0 0 0 0 0 0 0 0 0 0 0 0 0 0 0 1 1 1 1 1 0 0
0 0 0 0 0 0 0 0 0 0 0 0 0 0 0 0 0 0 0 0 0 1 1 1 1 1 1 1 1 1 0 0 0 0 1 1 1 0 0 0 1 1 1 1 1 1 1 1 1
0 0 0 0 0 0 0 0 0 0 0 0 0 0 0 0 0 0 0 0 0 1 1 1 1 1 1 1 1 1 1 1 1 1 1 1 1 1 1 1 1 1 1 1 1 1 1 0 0
0 0 0 0 0 0 0 0 0 0 0 0 0 0 0 0 0 0 0 0 1 1 1 1 1 1 1 1 1 1 1 1 1 1 1 1 1 1 1 1 1 1 1 1 1 1 1 0 0
0 0 0 0 0 0 0 0 0 0 0 0 0 0 0 0 0 0 0 0 1 1 1 1 1 1 1 1 1 1 1 1 1 1 1 1 1 1 1 1 1 1 1 1 1 1 1 1 0
0 0 0 0 0 0 0 0 0 0 0 0 0 0 0 0 0 0 1 1 1 1 1 1 2 2 2 1 1 1 1 1 1 1 1 1 1 1 1 1 1 1 1 1 1 1 1 1 1
0 0 0 0 0 0 0 0 0 0 0 0 0 0 0 0 0 0 1 1 1 1 1 1 2 2 2 1 1 1 1 1 1 1 1 1 1 1 1 1 1 1 1 1 1 1 1 1 1
0 0 0 0 0 0 0 0 0 0 0 0 0 0 0 0 0 1 1 1 1 1 1 2 2 2 2 1 1 1 1 1 1 1 1 1 1 1 1 1 1 1 1 1 1 1 1 1 1
0 0 0 0 0 0 0 0 0 0 0 0 0 0 0 0 0 1 1 1 1 1 1 1 2 2 2 1 1 1 1 1 1 1 1 1 1 1 1 1 1 1 1 1 1 1 1 1 1
0 0 0 0 0 0 0 0 0 0 0 0 0 0 0 0 1 1 1 1 1 1 1 1 1 1 1 1 1 1 1 1 1 1 1 1 1 1 1 1 1 1 1 1 1 1 1 1 1
0 0 0 0 0 0 0 0 0 0 0 0 0 0 0 0 1 0 0 0 1 1 1 1 1 1 1 1 1 1 1 1 1 1 1 1 1 1 1 1 1 1 1 1 1 1 1 1 1
0 0 0 0 0 0 0 0 0 0 0 0 0 0 0 0 0 0 0 0 1 1 1 1 1 1 1 1 1 1 1 1 1 1 1 1 1 1 1 1 1 1 1 1 1 1 1 1 1
0 0 0 0 0 0 0 0 0 0 0 0 0 0 0 0 0 0 0 0 1 1 1 1 1 1 1 1 1 1 1 1 1 1 1 1 1 1 1 1 1 1 1 1 1 1 1 1 1
Wind_Speed
9 11 9 5 5 3 5 10 12 11 11 10 10 11 14 13 10 10 7 9 13 14 12 12 11 10 10 10 9 9 9 8 8 8 8 7 7 8 8 8 8 8 7 7 6 6 6 6 5
9 10 7 5 3 2 8 11 12 11 10 9 11 12 14 14 13 11 8 9 12 14 12 11 11 10 10 9 9 8 9 8 8 8 7 7 7 7 8 8 8 7 7 6 6 6 6 6 5
12 12 6 4 2 6 9 11 10 10 9 9 11 12 11 10 11 9 9 10 12 14 13 12 12 11 10 9 8 8 8 8 8 7 6 7 7 7 7 7 7 6 6 5 5 6 6 5 5
8 7 5 2 6 10 10 9 8 9 9 9 10 11 12 10 9 10 9 9 12 14 14 13 12 11 10 9 8 8 7 7 7 6 6 6 7 7 7 6 6 5 5 5 5 5 5 5 5
9 6 3 3 9 10 10 9 9 10 10 11 14 13 13 11 11 11 9 8 11 13 13 13 12 11 10 9 8 7 7 6 6 6 5 6 6 6 6 5 5 5 5 5 5 4 4 4 5
5 4 1 6 10 10 10 9 10 11 11 11 13 13 11 10 9 9 9 8 10 13 13 13 13 11 10 9 8 7 6 6 6 5 5 5 5 6 6 5 5 5 5 5 4 4 4 4 5
5 4 2 7 9 10 10 10 10 10 11 10 10 12 9 9 8 9 8 8 9 11 12 11 10 10 10 9 8 8 7 6 5 5 4 4 5 6 6 6 6 6 6 6 5 5 5 5 6
5 3 4 7 9 10 10 10 10 11 11 9 8 9 9 9 8 8 8 8 8 9 10 10 9 9 8 8 8 8 8 6 5 4 4 5 5 6 6 7 7 7 7 7 6 6 7 7 8
4 2 5 7 8 8 9 9 9 10 10 11 12 12 13 11 9 8 7 8 7 7 7 7 8 8 7 8 9 9 8 6 5 4 5 5 4 5 6 7 8 8 8 8 8 9 9 9 9
2 2 6 7 7 8 8 8 9 9 10 12 12 13 13 10 9 8 7 8 7 6 6 5 6 5 5 5 6 5 5 5 4 3 3 2 2 2 3 6 9 9 9 9 10 11 10 9 5
3 3 5 6 7 8 7 7 9 8 9 11 12 12 11 10 8 7 7 8 6 5 5 6 5 4 3 3 4 3 3 3 4 3 2 1 0 1 2 2 5 6 7 6 6 7 6 5 4
3 2 4 6 6 7 7 8 9 10 10 11 12 12 10 9 9 8 7 8 7 5 6 5 6 4 3 3 2 3 2 2 2 3 2 2 1 0 1 1 1 2 2 3 3 2 4 4 4
2 3 4 5 6 7 8 8 9 9 10 12 12 10 10 8 8 8 8 8 7 5 6 6 5 4 3 2 0 1 2 2 3 2 2 1 1 1 1 0 1 1 1 2 1 1 2 2 2
2 2 2 4 5 6 9 8 8 8 10 10 10 9 9 8 8 8 8 8 7 6 6 6 6 5 3 2 1 0 1 2 2 2 2 1 1 1 1 1 1 1 0 1 0 1 1 1 1
3 2 1 4 5 6 7 7 8 8 8 9 10 9 9 8 7 7 7 7 7 7 6 5 6 6 4 2 1 1 1 2 2 2 2 2 1 1 1 1 1 1 1 1 1 1 1 1 2
5 4 2 3 5 5 5 7 8 9 8 8 9 9 8 8 8 7 8 7 6 7 6 4 4 6 5 2 1 0 0 1 1 1 2 2 1 1 1 1 0 1 1 1 1 1 1 1 1
4 3 2 2 3 3 4 8 10 9 9 8 8 9 9 8 8 7 8 8 8 6 6 4 3 5 4 3 3 2 1 1 1 1 1 1 1 1 1 0 0 1 1 1 1 1 1 2 2
4 4 1 1 2 3 4 8 10 10 10 10 9 8 9 9 8 8 8 8 8 7 6 5 4 3 3 2 2 1 1 1 1 1 1 1 1 1 1 1 1 1 1 0 0 1 2 2 2
8 5 3 1 1 0 3 6 7 6 7 9 9 9 9 9 9 9 8 8 8 7 6 5 4 3 2 2 2 2 1 1 1 1 2 1 0 1 0 1 1 1 1 0 1 1 2 2 1
9 5 3 3 1 1 2 4 6 5 5 6 9 9 9 9 9 9 8 8 8 7 6 5 5 4 3 2 2 1 1 1 1 1 2 1 1 0 1 1 1 1 1 1 1 1 2 2 1
9 7 4 5 3 2 2 3 6 6 5 5 7 8 9 10 10 9 8 7 8 8 7 5 5 4 3 3 2 1 1 0 0 1 1 1 1 1 1 0 1 1 1 1 1 2 2 2 2
7 7 6 6 5 4 5 2 4 6 5 5 5 5 8 9 10 10 9 8 8 8 8 6 6 4 3 3 2 2 2 1 1 1 1 2 1 1 1 0 1 2 1 1 2 1 2 2 2
9 7 8 9 7 6 6 4 3 4 6 6 5 6 6 8 9 10 11 9 8 9 9 7 6 5 4 3 2 1 1 1 1 1 1 2 2 1 1 1 1 1 1 1 2 2 2 2 2
10 9 9 9 6 7 8 5 4 5 8 8 8 7 6 8 7 8 9 9 8 8 8 8 7 5 4 3 2 2 1 1 1 1 1 1 1 1 1 1 1 1 1 1 1 2 2 1 2
11 9 6 6 4 6 6 4 3 3 4 7 9 8 8 7 7 7 8 8 7 7 7 7 8 6 5 4 3 2 1 1 1 1 1 1 1 1 1 1 0 1 1 1 2 2 2 2 2
10 10 8 9 6 5 4 3 2 5 4 5 8 8 8 8 7 6 8 7 6 7 7 7 7 6 5 4 3 3 2 2 1 2 2 1 1 0 1 1 0 1 1 2 2 2 2 1 2
11 10 11 11 10 6 4 4 3 4 3 5 7 7 8 7 7 7 7 7 6 6 6 7 7 5 4 4 4 3 3 2 1 0 1 1 1 1 1 0 0 0 1 1 2 2 2 2 2
11 10 8 7 7 9 4 2 2 4 4 5 6 6 8 7 8 7 6 6 5 5 6 6 6 6 4 3 3 4 4 2 1 1 1 0 1 1 1 1 1 1 1 1 2 2 2 1 1
9 11 9 7 7 9 7 1 4 6 4 5 7 8 8 8 8 7 6 6 5 5 5 5 5 5 5 4 3 2 3 3 2 2 1 0 1 1 1 1 1 2 1 1 2 3 3 2 2
11 11 10 8 6 8 9 2 3 4 4 4 6 6 6 5 7 7 6 6 5 3 4 4 3 3 4 4 3 3 2 2 3 2 1 1 0 1 1 1 2 2 1 2 2 3 3 3 2
Wind_Direction
208 222 224 239 244 243 58 63 61 60 60 54 47 55 59 49 53 83 103 106 106 108 110 109 107 108 106 103 102 103 105 106 107 109 112 113 118 122 125 127 128 129 131 132 137 146 146 148 152
233 230 228 239 261 40 61 64 61 61 70 73 65 62 69 66 74 95 102 107 109 112 112 109 111 111 109 107 106 105 107 109 110 111 110 111 117 120 124 126 126 130 134 137 146 153 154 154 161
247 244 246 238 34 53 63 67 72 74 74 76 74 62 57 71 81 98 113 119 113 110 109 112 116 116 112 109 107 105 108 110 112 113 113 112 118 124 126 129 130 133 138 142 148 152 156 161 174
240 235 241 271 51 57 63 69 77 79 75 71 78 76 72 72 85 103 118 117 113 113 113 118 121 121 118 114 110 108 109 110 112 112 117 119 122 127 131 133 135 140 146 148 151 155 157 168 187
238 255 238 68 69 65 65 63 67 71 71 72 80 85 85 85 94 109 120 114 110 113 115 122 125 125 124 121 118 115 113 111 111 113 116 123 132 138 139 143 143 147 149 151 157 162 168 183 201
256 258 266 74 75 73 70 67 67 73 79 85 90 95 88 95 107 119 117 112 109 113 117 125 130 131 131 130 128 125 123 123 123 120 120 128 140 148 151 157 157 158 164 167 175 182 188 200 211
249 276 33 77 81 71 70 69 66 71 72 75 93 98 103 106 109 110 115 115 109 113 120 129 136 138 140 140 141 139 140 140 138 138 141 143 149 156 164 168 174 178 182 184 192 198 206 212 222
252 295 41 71 77 79 81 76 75 78 76 76 84 99 116 117 118 117 115 108 111 112 118 131 138 144 150 149 155 154 152 153 152 156 166 174 175 172 176 177 183 189 194 198 205 210 216 224 231
287 330 54 75 80 90 91 88 88 91 90 80 78 94 114 124 124 119 113 109 102 101 112 126 134 149 151 147 153 167 163 164 168 178 193 198 200 188 185 178 182 195 201 207 214 218 222 227 234
65 51 57 72 85 92 92 98 107 98 94 94 95 101 117 126 121 119 123 116 109 112 120 113 120 131 140 136 140 160 160 156 177 166 181 198 195 188 176 167 187 199 206 215 220 225 227 229 230
101 73 64 67 82 92 92 87 92 91 94 102 113 119 124 126 125 125 120 114 117 122 112 112 108 107 113 118 137 139 147 150 162 154 177 171 185 175 168 174 184 198 207 217 215 220 228 223 225
103 69 66 74 77 88 88 82 81 79 90 108 117 126 132 140 139 138 126 123 128 127 117 110 108 101 85 86 108 141 145 147 143 147 177 149 159 169 149 199 195 186 196 200 211 212 218 221 222
63 79 66 80 89 97 97 91 93 93 99 111 121 128 137 143 139 135 129 128 130 130 121 111 109 103 96 85 333 117 122 127 128 135 143 163 152 126 134 247 281 244 192 183 215 228 217 220 224
18 54 77 103 119 126 116 113 105 106 115 119 127 133 140 138 138 135 135 138 143 141 132 128 126 117 109 118 128 45 126 127 121 130 130 149 141 125 161 198 254 272 212 177 235 251 220 212 218
311 298 253 155 159 135 121 101 109 123 129 134 138 139 139 136 137 137 136 140 142 140 132 134 138 136 138 150 204 158 166 125 132 134 136 142 146 125 220 205 226 271 248 184 176 256 241 224 223
259 241 209 164 139 138 144 116 133 146 146 144 143 142 141 137 142 140 137 137 136 138 138 151 150 139 144 156 164 88 83 119 138 148 142 147 161 184 236 213 218 272 269 232 198 199 259 261 242
265 252 166 151 126 137 141 130 149 158 153 149 147 146 146 141 144 140 143 143 138 132 130 134 122 131 143 160 167 188 163 141 146 134 130 153 178 189 242 242 342 280 268 274 287 80 256 263 257
294 289 236 174 135 127 128 131 148 157 159 152 148 149 150 148 149 146 146 140 135 133 131 134 132 130 142 157 172 193 178 160 167 151 142 136 184 195 289 253 292 297 314 330 354 314 266 253 257
276 285 320 267 125 152 122 131 133 149 164 151 151 154 154 152 149 148 151 146 141 138 137 140 147 146 150 164 175 178 179 182 188 161 137 140 151 123 202 303 290 269 284 308 317 312 292 276 267
283 299 299 288 107 245 136 124 131 160 175 157 155 158 155 151 144 145 150 149 147 143 146 151 157 158 172 168 176 190 170 184 171 123 121 135 127 323 196 232 282 292 289 309 296 296 295 297 305
290 300 301 304 305 285 218 146 159 166 167 150 156 157 155 155 154 153 157 156 154 149 153 156 154 158 167 161 176 182 146 210 115 124 126 148 153 163 303 96 313 310 282 284 285 297 297 297 299
286 310 317 307 301 272 256 210 187 170 162 159 158 161 159 159 158 160 163 162 160 156 156 148 144 147 147 161 179 167 160 183 194 156 158 157 156 161 226 168 315 306 320 316 291 328 302 289 291
290 303 302 297 291 278 273 247 192 180 177 185 168 162 158 153 156 159 163 159 161 158 154 150 143 144 147 158 167 188 188 209 204 164 166 166 167 182 229 178 232 270 290 300 327 322 307 297 303
271 274 276 272 272 276 269 261 188 182 181 178 164 160 156 143 147 147 144 147 155 148 145 144 142 146 153 165 169 176 205 229 238 202 192 208 184 170 188 187 216 252 279 289 295 293 291 308 320
262 268 274 272 261 267 271 274 138 152 167 158 153 154 145 136 131 131 127 135 144 142 142 137 139 144 155 167 174 172 195 223 243 254 241 247 223 149 186 182 176 257 273 276 287 281 301 307 303
265 269 275 287 277 276 292 289 101 132 143 127 132 139 139 135 130 132 130 132 137 136 133 134 139 148 161 166 170 165 178 220 230 242 274 277 304 21 110 117 197 259 284 300 303 291 291 293 290
261 270 283 285 284 275 230 188 145 120 157 134 125 133 133 134 130 131 130 132 135 138 137 139 140 143 154 164 166 168 181 216 258 275 250 312 343 359 61 176 228 255 277 320 324 313 315 320 304
257 273 280 283 293 286 276 190 179 180 173 130 131 142 131 134 131 132 134 129 131 136 139 142 142 147 154 160 181 181 188 190 207 252 260 256 316 338 350 339 329 327 327 331 308 300 301 297 301
259 264 272 285 293 295 293 291 153 168 162 161 148 140 132 143 144 143 134 126 128 131 133 130 141 150 157 170 184 198 182 187 195 209 248 291 287 301 312 309 311 305 297 288 278 289 296 287 287
264 265 266 270 273 276 283 284 99 134 142 127 119 122 130 147 144 139 133 131 128 127 133 136 148 153 162 167 174 196 184 187 193 203 208 220 226 258 268 261 272 279 285 287 284 286 292 297 295